User: anonymous   Login
Location: *
(45.9500°N, 9.0833°E)
Time: 12:06:57
(UTC+00:00)
Language:

deb Explorer IX - Orbit

View from above orbital plane
View from above orbital plane
View from above satellite
View from above satellite

Ground track
Ground track

The orbit data is extracted from the following two-line orbital elements,

1 00085U 61004C   21163.76717092  .00001919  00000-0  42328-3 0  9998
2 00085  38.7729 341.1024 0385627  21.9584 339.7208 14.21760111982371
Epoch (UTC): 12 June 2021 18:24:43
Eccentricity: 0.0385627
inclination: 38.7729°
perigee height: 542 km
apogee height: 1097 km
right ascension of ascending node: 341.1024°
argument of perigee: 21.9584°
revolutions per day: 14.21760111
mean anomaly at epoch: 339.7208°
orbit number at epoch: 98237

The dashed part of the orbit path shows where the satellite is in the earth's shadow,  

DLR